Wind_Speed
1 1 1 0 0 0 0 1 2 2 2 2 3 3 3 4 4 5 5 5 5 5 5 5 5 5 6 6 6 6 6 6 7 8 8 8 8 8 8 9 9 8 8 9 9 10 10 10 11
1 1 1 0 1 1 1 1 1 2 2 2 3 3 4 4 5 5 6 6 6 5 6 6 5 5 5 6 6 7 7 7 7 8 8 8 8 8 9 9 9 9 9 9 9 9 10 10 10
1 0 1 1 1 1 1 1 2 2 2 3 3 4 4 5 5 6 6 6 6 6 6 5 5 5 5 5 6 6 6 7 7 7 8 8 7 8 8 9 9 9 9 9 9 10 10 10 10
1 1 2 2 2 1 2 1 2 3 3 3 4 5 5 5 6 6 6 6 7 7 6 6 5 5 5 6 6 6 7 7 7 7 7 7 7 8 8 8 8 8 9 10 10 10 10 11 11
1 1 2 3 2 1 1 1 2 3 4 4 5 5 5 5 5 5 6 6 6 6 6 7 6 5 4 5 6 6 6 6 6 6 7 7 8 8 8 8 8 8 9 9 10 10 10 11 11
1 2 2 2 2 2 2 2 3 3 4 5 5 5 5 5 5 5 6 6 6 6 6 6 7 6 5 4 5 5 4 4 5 5 6 6 6 7 6 7 8 8 8 8 8 9 9 10 10
1 2 2 2 2 3 3 3 3 3 4 4 4 4 5 5 5 5 6 6 6 6 6 6 6 5 5 4 5 5 5 4 3 4 4 5 5 6 7 7 7 7 8 8 8 9 9 9 10
2 2 2 2 2 3 3 3 3 3 4 4 4 4 5 5 5 5 6 6 6 6 6 6 5 5 5 5 5 5 5 4 4 4 4 5 5 6 7 7 7 7 8 8 9 9 9 9 10
3 3 3 3 3 2 2 3 4 4 4 4 4 4 4 5 5 5 5 5 5 5 5 6 5 5 5 5 4 5 4 4 5 5 5 6 6 5 6 7 7 7 7 8 8 8 9 10 10
3 3 3 3 2 2 2 3 3 3 4 4 4 4 5 6 6 5 4 4 5 5 5 6 5 5 5 5 5 5 5 5 5 6 6 6 6 6 5 6 7 7 7 8 8 9 9 10 10
4 3 2 2 2 2 3 3 3 3 3 4 4 4 4 5 6 5 5 5 5 5 5 5 6 5 5 5 5 5 5 5 5 6 6 6 6 6 6 6 6 6 6 7 7 8 8 9 10
4 3 3 2 2 2 3 3 3 2 3 4 5 5 4 5 5 5 5 5 5 5 5 6 6 5 5 5 5 5 5 5 6 6 6 6 6 5 6 6 6 6 6 7 7 7 7 8 8
4 4 3 3 3 3 3 3 3 2 3 4 4 5 5 4 5 5 5 5 5 5 6 6 6 6 5 5 5 5 6 6 5 5 6 6 6 6 6 6 7 7 7 7 7 8 8 8 8
4 4 4 3 3 3 2 3 3 3 3 4 4 4 4 4 5 5 5 6 5 6 6 6 6 6 6 6 6 6 6 6 5 5 6 6 6 6 6 6 7 7 7 7 8 9 8 8 8
5 5 5 4 4 4 3 3 3 3 4 4 5 5 5 4 5 5 5 6 5 6 6 6 6 6 6 6 6 6 6 6 6 6 6 6 6 6 6 6 7 7 7 8 8 9 9 9 9
6 6 6 5 5 5 4 4 4 4 4 4 5 6 5 5 5 5 5 6 6 6 6 6 6 6 7 6 6 6 6 6 6 7 6 6 6 6 6 7 7 8 8 9 9 9 10 10 10
7 7 6 6 6 5 5 5 5 5 5 5 5 6 5 5 5 6 6 6 6 6 7 7 7 7 7 6 6 6 6 7 7 7 7 7 7 7 7 7 8 8 8 9 10 10 10 10 10
7 7 7 7 7 7 7 6 6 6 6 5 5 6 6 5 6 6 7 7 7 7 7 7 7 7 7 7 7 7 7 7 7 7 7 7 7 7 8 8 8 8 9 9 10 10 10 10 10
8 7 8 8 7 8 7 7 7 6 6 6 6 6 6 6 6 7 7 8 8 7 7 7 7 7 8 8 7 8 8 7 7 8 7 7 7 7 8 8 9 9 9 9 9 9 9 9 9
8 8 8 7 8 8 8 7 7 6 6 6 6 6 7 7 7 7 7 7 8 8 8 8 8 8 8 8 8 9 8 8 8 8 8 8 9 9 8 9 9 9 8 8 9 9 9 9 9
8 8 8 8 8 8 9 8 7 6 7 7 6 6 7 7 7 7 8 8 8 8 9 9 9 9 9 10 9 9 9 8 9 9 9 9 9 9 9 10 10 10 9 9 9 9 9 9 8
8 8 8 8 9 8 9 8 7 6 6 6 6 6 7 8 8 8 8 9 9 9 9 9 10 10 10 10 10 10 10 10 10 10 10 10 10 10 10 9 10 10 10 9 9 8 8 8 8
8 8 8 9 10 9 10 10 8 7 6 7 7 8 8 8 9 9 9 9 10 10 10 10 11 10 10 11 11 11 11 11 11 12 11 11 10 10 10 10 10 10 10 10 9 8 8 8 8
9 9 9 10 11 11 11 11 9 9 8 8 8 9 10 10 10 11 11 11 11 11 11 11 11 12 12 12 13 13 13 13 13 12 12 13 12 11 11 11 11 11 11 10 9 8 8 8 8
11 11 11 11 11 11 11 12 11 10 10 10 10 11 11 12 12 13 13 12 12 12 12 13 13 13 13 14 14 15 14 15 14 14 14 14 13 13 12 11 11 11 11 10 10 9 9 9 9
12 12 13 13 13 12 12 13 13 12 12 12 12 12 13 13 14 14 14 14 14 13 14 14 14 15 15 15 16 16 16 16 15 15 15 14 14 14 13 12 12 12 11 11 11 11 11 10 10
13 13 14 14 14 14 14 14 14 14 13 14 14 13 14 15 15 16 16 16 16 16 16 16 16 16 17 17 17 17 16 16 16 16 16 15 15 15 14 14 14 14 13 12 11 11 12 12 12
14 14 14 15 15 16 16 16 16 15 16 16 15 15 16 16 16 16 16 17 17 17 18 18 18 17 17 17 17 17 17 17 17 17 17 16 16 16 16 15 15 15 15 14 13 13 13 13 13
15 15 15 16 16 17 17 18 17 17 17 17 16 16 17 17 17 17 17 17 18 18 19 19 19 18 18 18 18 18 18 18 18 18 18 18 17 17 18 17 17 17 16 16 15 15 15 16 15
16 16 16 16 16 18 19 18 19 19 18 17 18 18 17 18 18 18 18 18 18 19 19 19 19 19 19 19 19 19 19 18 18 19 19 19 19 19 19 19 18 18 18 18 17 17 18 18 18
Wind_Direction
112 104 61 96 174 68 57 61 36 22 5 9 9 359 348 347 344 333 330 334 332 324 314 310 311 308 301 297 289 282 278 279 277 272 263 258 252 251 250 251 253 254 253 258 257 255 254 252 252
89 42 31 360 346 5 8 22 9 2 359 354 340 332 330 331 329 325 321 325 325 321 319 315 311 309 304 297 291 281 277 275 273 271 268 263 254 253 252 252 254 255 255 254 255 257 256 254 252
79 329 286 281 322 319 322 347 354 354 349 339 331 324 327 328 326 324 322 322 323 322 325 320 314 307 299 293 290 282 275 272 274 272 268 263 257 256 256 257 258 257 258 257 258 258 258 256 255
32 286 279 283 303 321 324 346 353 359 346 339 329 321 323 328 324 322 324 329 330 328 328 330 329 319 311 301 294 287 280 272 270 271 268 263 259 257 255 260 262 263 264 263 261 263 261 259 257
338 289 287 289 295 309 311 346 349 348 340 337 330 328 329 332 335 330 330 333 336 338 336 336 338 327 317 313 302 291 278 270 263 264 267 266 266 264 259 261 263 262 263 264 265 270 264 258 258
338 316 313 306 315 330 339 356 349 335 328 331 332 335 339 337 336 337 337 339 342 342 340 338 335 330 321 319 321 303 276 265 262 262 264 267 262 263 262 264 265 267 269 268 268 270 270 262 260
339 320 315 325 344 349 360 358 355 356 344 339 341 340 337 335 336 338 340 345 343 340 338 340 338 335 335 326 320 315 293 282 274 272 272 273 266 263 262 265 270 270 271 269 269 272 273 267 263
300 301 308 315 334 355 351 347 354 4 357 352 350 350 341 341 342 345 343 345 346 344 342 343 343 343 340 334 327 325 314 303 297 299 286 286 284 282 279 276 274 273 270 269 273 276 274 267 263
292 298 310 314 326 348 347 351 349 354 354 356 356 356 349 347 347 347 345 348 350 347 345 346 347 350 348 337 325 325 324 314 313 315 306 294 291 293 287 278 273 271 269 270 272 273 273 270 266
287 294 306 310 329 350 350 344 352 352 350 352 354 357 352 348 348 348 345 347 352 352 351 349 351 351 349 343 338 332 329 321 318 318 315 304 292 285 283 279 277 276 274 275 275 271 272 272 271
289 293 307 328 341 346 350 343 352 355 353 352 352 357 354 351 350 347 344 350 353 354 355 355 353 353 352 347 343 338 333 328 325 325 321 313 300 287 281 277 274 277 277 278 275 272 273 275 274
284 289 295 304 330 336 346 350 354 352 352 355 356 356 357 355 354 353 351 352 351 351 354 353 350 351 352 347 340 337 332 330 328 326 321 313 307 300 286 281 281 280 282 281 276 276 277 281 276
269 279 284 296 315 329 337 344 347 340 348 351 358 358 355 355 359 357 355 352 350 349 349 346 348 352 350 346 340 332 325 325 326 326 329 323 314 308 297 288 286 287 286 284 280 278 279 282 280
263 268 278 285 298 312 323 321 325 326 330 343 350 356 350 352 352 355 352 351 349 347 346 345 346 350 347 345 340 333 325 321 323 325 326 325 323 317 305 298 293 289 288 286 284 279 279 284 285
254 257 263 270 276 287 298 299 300 315 322 335 341 344 342 344 344 346 346 346 347 346 343 343 342 343 343 343 339 331 327 324 324 325 324 322 321 317 311 301 297 293 291 288 286 285 282 284 283
256 255 258 268 272 280 286 297 301 305 317 325 333 336 341 341 340 341 343 341 343 341 338 335 337 338 337 338 336 332 328 325 324 324 321 319 317 315 314 306 301 300 296 292 291 291 289 285 280
258 259 261 266 275 275 276 290 298 301 304 312 324 328 333 334 332 333 335 336 339 335 336 334 333 334 335 333 331 327 323 321 319 320 318 317 316 318 316 309 301 298 295 293 296 296 294 289 282
261 264 264 263 276 280 279 282 286 290 295 303 311 319 328 328 327 324 325 327 331 333 333 331 329 329 329 328 328 324 321 318 315 315 317 317 317 319 317 310 307 304 299 296 298 297 295 292 285
263 266 264 261 269 279 283 281 279 284 287 293 301 314 323 323 323 322 322 323 325 327 328 328 326 325 325 324 323 321 318 317 317 316 314 314 314 314 313 311 308 305 300 298 297 295 293 289 284
261 265 270 271 268 273 279 281 281 282 286 292 304 312 316 320 319 319 318 320 322 321 320 322 322 319 320 318 318 318 316 314 315 317 313 310 309 309 310 311 309 306 299 297 299 295 294 291 286
259 266 269 274 274 278 277 274 274 278 286 289 296 307 308 312 311 312 312 315 317 317 316 316 314 313 314 313 313 313 311 311 311 310 311 308 305 307 310 308 307 307 304 301 301 296 294 292 288
256 265 271 272 271 277 281 274 269 275 284 288 299 304 305 303 303 306 306 308 311 312 312 311 310 309 308 309 308 308 306 305 306 307 307 307 303 303 304 305 306 306 306 306 304 302 297 292 289
250 259 265 269 271 271 274 273 276 278 289 296 302 303 299 301 302 302 300 303 306 306 310 310 307 305 304 303 304 304 302 302 304 304 305 306 305 301 300 300 301 303 302 301 301 299 295 290 289
253 258 265 270 271 270 271 273 277 279 290 299 302 300 301 301 302 303 302 300 300 301 302 305 303 303 305 304 305 305 301 300 300 301 302 304 303 301 296 296 297 300 301 298 294 294 293 287 286
254 260 265 270 274 273 269 272 278 282 288 293 298 298 298 297 299 299 298 297 296 297 297 299 299 299 300 301 302 301 300 298 295 295 297 297 298 296 293 293 295 296 297 295 290 286 286 284 284
257 261 270 275 276 274 272 274 277 280 283 286 293 295 295 293 292 292 291 293 293 294 295 295 295 296 296 297 297 298 298 296 294 294 294 294 294 293 292 291 291 291 290 287 285 286 280 282 283
261 263 268 273 274 272 272 274 276 277 281 282 287 291 294 292 289 287 287 289 289 290 292 293 292 292 294 295 295 296 295 294 292 292 292 292 291 290 289 288 288 287 286 283 281 280 279 279 279
264 268 269 271 274 272 272 275 279 283 280 281 282 286 289 289 289 287 285 285 286 287 288 290 290 290 291 292 292 293 293 293 292 290 290 290 289 288 287 286 286 284 285 283 279 278 278 278 276
268 269 268 272 274 274 273 273 278 281 281 280 278 280 284 286 287 288 285 284 283 284 286 288 288 289 290 290 290 290 290 290 290 290 289 289 288 286 284 284 282 282 281 282 280 280 279 277 277
267 268 270 272 273 273 275 275 277 278 278 278 279 280 281 285 285 284 284 282 282 283 285 285 285 286 286 287 288 288 287 287 288 288 287 286 285 284 283 281 280 279 278 279 279 278 278 277 276
Height
5880 5880 5880 5881 5881 5881 5880 5880 5879 5878 5878 5877 5876 5876 5875 5875 5875 5876 5873 5871 5870 5870 5869 5868 5868 5867 5867 5866 5866 5866 5865 5865 5865 5865 5865 5865 5865 5866 5866 5866 5866 5866 5866 5867 5866 5866 5866 5867 5866
5880 5880 5881 5881 5880 5880 5880 5879 5878 5878 5877 5877 5876 5876 5875 5874 5874 5873 5871 5870 5870 5869 5868 5867 5867 5866 5866 5865 5865 5864 5864 5864 5864 5864 5863 5863 5864 5864 5864 5864 5865 5865 5865 5865 5865 5865 5865 5865 5865
5880 5880 5881 5881 5880 5880 5879 5879 5878 5877 5877 5876 5876 5875 5874 5874 5873 5872 5871 5870 5869 5867 5866 5866 5865 5865 5864 5864 5863 5863 5863 5862 5862 5862 5862 5862 5862 5862 5863 5863 5863 5863 5863 5863 5863 5863 5863 5863 5863
5881 5881 5881 5880 5879 5879 5878 5878 5877 5877 5876 5875 5875 5874 5873 5873 5872 5871 5870 5869 5867 5866 5865 5864 5864 5863 5863 5862 5862 5861 5861 5861 5861 5861 5860 5860 5860 5861 5861 5861 5860 5861 5861 5861 5861 5861 5861 5861 5861
5881 5881 5880 5879 5879 5879 5877 5877 5877 5876 5875 5875 5874 5873 5872 5872 5871 5870 5869 5868 5867 5866 5865 5864 5863 5862 5862 5861 5860 5860 5860 5859 5859 5859 5859 5859 5859 5859 5859 5859 5858 5858 5858 5859 5859 5859 5859 5859 5859
5881 5881 5880 5879 5879 5878 5877 5877 5876 5876 5875 5874 5873 5872 5872 5871 5870 5869 5868 5867 5866 5865 5864 5863 5862 5861 5861 5860 5859 5859 5858 5858 5857 5857 5857 5857 5857 5857 5857 5857 5856 5856 5856 5857 5857 5856 5856 5856 5856
5882 5880 5879 5879 5878 5877 5877 5876 5875 5875 5874 5873 5873 5872 5871 5870 5869 5868 5867 5866 5865 5864 5863 5862 5861 5860 5860 5859 5858 5858 5857 5857 5856 5856 5856 5855 5855 5855 5855 5855 5854 5854 5855 5855 5854 5854 5854 5854 5854
5880 5881 5879 5878 5877 5877 5876 5875 5874 5874 5874 5873 5872 5871 5870 5869 5869 5868 5867 5866 5864 5863 5862 5861 5860 5860 5859 5858 5857 5856 5856 5855 5855 5854 5854 5854 5854 5853 5852 5853 5853 5853 5853 5852 5852 5852 5851 5851 5851
5880 5880 5878 5878 5877 5876 5875 5875 5874 5873 5872 5872 5871 5870 5869 5869 5868 5867 5866 5865 5864 5863 5861 5860 5860 5859 5858 5857 5856 5855 5855 5854 5854 5853 5852 5852 5852 5851 5851 5851 5851 5850 5850 5850 5850 5849 5849 5849 5849
5879 5879 5878 5877 5876 5876 5875 5874 5873 5872 5872 5871 5870 5869 5868 5868 5867 5866 5865 5864 5863 5862 5861 5860 5859 5858 5857 5856 5855 5854 5854 5853 5852 5852 5851 5850 5850 5850 5849 5849 5848 5848 5848 5848 5847 5847 5847 5846 5846
5878 5877 5877 5876 5875 5875 5874 5874 5873 5872 5871 5870 5870 5869 5868 5867 5866 5865 5864 5863 5863 5862 5861 5859 5858 5857 5856 5855 5854 5853 5853 5852 5851 5850 5850 5849 5848 5848 5847 5847 5846 5846 5846 5845 5845 5845 5844 5844 5843
5877 5876 5876 5875 5874 5874 5873 5873 5872 5871 5871 5870 5869 5868 5867 5866 5865 5864 5863 5862 5861 5861 5860 5858 5857 5856 5855 5854 5853 5852 5852 5851 5850 5849 5848 5847 5847 5846 5846 5845 5845 5844 5844 5843 5843 5842 5841 5841 5841
5876 5875 5875 5874 5874 5873 5872 5872 5871 5871 5870 5869 5868 5867 5866 5865 5864 5864 5862 5861 5860 5859 5859 5857 5856 5855 5854 5853 5852 5851 5850 5850 5849 5848 5847 5846 5845 5845 5844 5843 5843 5842 5842 5841 5841 5840 5839 5839 5838
5875 5874 5873 5873 5873 5872 5871 5871 5871 5870 5869 5868 5867 5867 5866 5865 5864 5863 5862 5860 5859 5859 5858 5857 5856 5854 5853 5852 5851 5850 5849 5848 5847 5847 5846 5845 5844 5843 5842 5842 5841 5840 5840 5839 5839 5838 5837 5837 5836
5873 5873 5873 5872 5871 5871 5871 5870 5870 5869 5868 5867 5867 5866 5865 5864 5863 5862 5861 5860 5859 5858 5857 5856 5855 5853 5852 5851 5850 5849 5848 5847 5846 5845 5844 5843 5842 5841 5841 5840 5839 5838 5837 5837 5836 5835 5835 5834 5833
5872 5872 5871 5871 5870 5869 5871 5870 5869 5868 5867 5866 5865 5865 5864 5863 5862 5861 5860 5859 5858 5857 5856 5855 5853 5852 5851 5850 5849 5848 5847 5846 5844 5843 5842 5841 5840 5840 5839 5838 5837 5836 5835 5834 5834 5833 5832 5831 5830
5870 5870 5869 5869 5868 5868 5868 5867 5867 5866 5866 5865 5864 5863 5863 5862 5861 5860 5859 5858 5857 5856 5855 5854 5852 5851 5850 5849 5848 5847 5845 5844 5843 5842 5841 5840 5839 5838 5837 5836 5835 5834 5833 5832 5831 5830 5829 5828 5827
5867 5867 5867 5866 5866 5866 5866 5865 5865 5864 5864 5863 5863 5862 5861 5860 5860 5859 5858 5857 5856 5855 5854 5852 5851 5850 5849 5848 5846 5845 5844 5843 5841 5840 5839 5838 5837 5836 5835 5834 5832 5832 5830 5829 5829 5827 5826 5825 5824
5865 5865 5864 5864 5864 5864 5863 5863 5863 5862 5862 5861 5861 5860 5860 5859 5858 5857 5856 5855 5854 5853 5852 5851 5850 5849 5847 5846 5845 5843 5842 5841 5840 5838 5837 5836 5835 5834 5833 5831 5830 5829 5828 5827 5826 5825 5824 5822 5822
5862 5862 5862 5862 5862 5861 5861 5861 5861 5860 5860 5859 5859 5859 5858 5858 5857 5856 5855 5854 5853 5852 5851 5849 5848 5847 5845 5844 5843 5842 5840 5839 5838 5837 5835 5834 5833 5832 5831 5829 5828 5827 5825 5824 5823 5822 5821 5820 5819
5860 5860 5860 5860 5859 5859 5859 5859 5859 5858 5858 5857 5857 5857 5856 5856 5855 5854 5853 5852 5851 5850 5849 5848 5846 5845 5843 5842 5841 5840 5838 5837 5836 5835 5833 5832 5831 5829 5828 5827 5826 5824 5823 5822 5820 5819 5818 5817 5816
5857 5857 5857 5857 5857 5857 5857 5857 5857 5856 5856 5855 5855 5854 5854 5854 5853 5852 5851 5850 5849 5848 5847 5845 5844 5843 5841 5840 5839 5837 5836 5835 5834 5832 5831 5829 5828 5827 5826 5824 5823 5822 5821 5819 5818 5816 5815 5815 5814
5855 5855 5855 5854 5854 5854 5854 5853 5855 5853 5853 5853 5852 5852 5851 5851 5850 5849 5848 5848 5847 5846 5844 5843 5842 5841 5839 5838 5836 5835 5834 5833 5831 5830 5828 5827 5826 5824 5823 5822 5821 5820 5818 5817 5815 5814 5813 5812 5812
5852 5852 5852 5851 5851 5851 5851 5850 5851 5851 5851 5850 5850 5849 5848 5848 5847 5847 5846 5845 5844 5843 5842 5841 5840 5838 5837 5836 5834 5832 5831 5830 5828 5827 5826 5824 5823 5821 5820 5819 5818 5817 5815 5814 5813 5812 5811 5810 5810
5849 5849 5849 5848 5848 5848 5848 5847 5848 5848 5848 5847 5847 5846 5845 5845 5844 5844 5843 5842 5841 5840 5839 5838 5837 5836 5834 5833 5831 5830 5828 5826 5825 5823 5822 5821 5820 5818 5817 5815 5815 5814 5813 5811 5810 5810 5809 5808 5808
5845 5846 5846 5846 5845 5845 5844 5843 5844 5844 5844 5843 5843 5842 5842 5841 5840 5840 5839 5839 5838 5837 5836 5835 5833 5832 5831 5830 5828 5826 5824 5823 5821 5820 5818 5817 5816 5815 5813 5812 5811 5810 5810 5808 5808 5807 5806 5806 5805
5842 5842 5843 5842 5841 5841 5840 5840 5840 5840 5839 5839 5839 5839 5838 5837 5837 5836 5835 5835 5834 5833 5832 5831 5830 5828 5827 5826 5824 5822 5820 5819 5817 5816 5814 5813 5812 5811 5809 5808 5808 5807 5806 5805 5804 5804 5803 5802 5802
5838 5838 5838 5838 5837 5837 5837 5836 5836 5836 5835 5835 5834 5834 5834 5833 5832 5832 5831 5831 5830 5829 5828 5826 5825 5824 5823 5821 5820 5818 5816 5814 5813 5811 5810 5809 5807 5806 5805 5804 5803 5802 5802 5801 5800 5800 5799 5798 5798
5834 5834 5834 5833 5833 5833 5832 5834 5832 5831 5830 5830 5830 5830 5829 5829 5828 5827 5827 5826 5825 5824 5823 5822 5821 5820 5818 5817 5815 5813 5812 5810 5808 5807 5805 5804 5802 5801 5800 5800 5799 5798 5797 5797 5796 5796 5795 5794 5794
5829 5829 5829 5829 5828 5827 5827 5830 5826 5826 5825 5825 5825 5825 5824 5824 5823 5823 5822 5821 5820 5819 5818 5817 5815 5814 5813 5811 5810 5808 5806 5805 5803 5801 5800 5798 5797 5796 5795 5794 5793 5793 5792 5792 5791 5791 5790 5789 5789